C/2018 F3 ( Johnson )

Japanese version
Home page
Updated on May 21, 2018

---------------------------------------------------------------------

* Profile

Discovery Date March 20, 2018
Magnitude 19.4 mag
Discoverer J. A. Johnson (Mount Lemmon)

* Pictures

* Orbital Elements

T 2017 Aug. 14.95776 TT                                 MPCW
q   2.4748420            (2000.0)            P               Q
                   Peri.  292.75128     -0.41371552     -0.90288006
                   Node   173.03760     +0.17237279     +0.04831237
e   1.0            Incl.  105.47990     -0.89393909     +0.42716919
From 46 observations 2018 Mar. 20-28.

* Magnitudes Graph

        m1 = 12.5 + 5 log d + 10.0 log r

---------------------------------------------------------------------

The orbital elements are published on M.P.E.C. 2018-F137.
The magnitudes graphs are made with Comet for Windows.

---------------------------------------------------------------------

Copyright(C) Seiichi Yoshida (comet@aerith.net). All rights reserved.